User: anonymous   Login
Location: Unspecified
(0.0000°N, 0.0000°E)
Time: 21:07:05
(UTC+00:00)
Language:

STARLINK-35332 - Orbit

View from above orbital plane
View from above orbital plane
View from above satellite
View from above satellite

Ground track
Ground track

The orbit is defined by the following mean orbital elements,

1 65887U          26145.05657591 +.00000000 +00000-0 +11966-2 0 00008
2 65887  53.1596  15.4158 0001154  91.5890 268.5244 15.34404780    09
Epoch (UTC): 25 May 2026 01:21:28
Eccentricity: 0.0001154
inclination: 53.1596°
perigee height: 462 km
apogee height: 463 km
right ascension of ascending node: 15.4158°
argument of perigee: 91.5890°
revolutions per day: 15.34404780
mean anomaly at epoch: 268.5244°

The dashed part of the orbit path shows where the satellite is in the earth's shadow,  

DLR